Zurück zum Katalog

FENGYUN 1C DEB

AktivPO
NORAD 29733·DEBRIS·🇨🇳 China

Gestartet May 10, 1999 von Taiyuan Satellite Launch Center

Loading…

Nächste Überflüge (nächste 24 Stunden)

TLE

AktuellSource: Space-Track

Epoche: Sep 14, 2026, 22:07 UTC

1 29733U 99025X   26257.92192565  .00001005  00000-0  17410-2 0  9991
2 29733  99.2060 276.8764 0563790 284.0993 194.6127 12.96913561926995

Verfolge FENGYUN 1C DEB in Echtzeit mit AllMySat

Download on the App Store